Regional Weather Roundup
Issued by NWS State College, PA

Home | Current Version | Previous Version | Graphics & Text | Print | Product List | Glossary On
Versions: 1 2 3 4 5 6 7 8 9 10 11 12 13 14 15 16 17 18 19 20 21 22 23 24 25 26 27 28 29 30 31 32 33 34 35 36 37 38 39 40 41 42 43 44 45 46 47 48 49 50
000
ASUS41 KCTP 190103
RWRCTP

REGIONAL WEATHER ROUNDUP
NATIONAL WEATHER SERVICE STATE COLLEGE PA
800 PM EST WED JAN 18 2017

Note: "fair" indicates few or no clouds below 12,000 feet with no
significant weather and/or obstructions to visibility.

* = STATION THAT DOES NOT REPORT PRECIPITATION /E.G. RAIN...SNOW...ETC/
    THUNDER OR FOG.

PAZ002>004-007>009-013>016-020>023-029>032-190200-
WESTERN PENNSYLVANIA

CITY           SKY/WX    TMP DP  RH WIND       PRES   REMARKS
ERIE           CLOUDY    37  35  92 SW7       30.05F
MEADVILLE      CLOUDY    36  34  92 SW7       30.04F FOG
FRANKLIN*        N/A     36  32  87 SW8       30.06F
NEW CASTLE     CLOUDY    37  37 100 VRB3      30.09F
BEAVER COUNTY  CLOUDY    37  34  87 W9        30.09F
BUTLER*        CLOUDY    37  34  87 SW8       30.11F
PITTSBURGH INT DRIZZLE   39  36  89 SW7       30.09S
PITTSBURGH     CLOUDY    39  32  76 W7        30.09F
INDIANA*       CLOUDY    37  37 100 W8        30.10F FOG
LATROBE        CLOUDY    37  36  93 SW7       30.12S
WASHINGTON CO* CLOUDY    37  34  87 SW6       30.12R
$$

PAZ004>006-010>012-017>019-024>028-033>037-041-042-045-046-049>053-190200-
CENTRAL PENNSYLVANIA

CITY           SKY/WX    TMP DP  RH WIND       PRES   REMARKS
BRADFORD       CLOUDY    34  33  96 W6        30.00F
DUBOIS         CLOUDY    35  33  92 W10       30.03S FOG
CLEARFIELD     CLOUDY    37  36  96 SW5       30.05F
JOHNSTOWN      CLOUDY    34  33  96 W9        30.03F
ALTOONA        CLOUDY    39  34  82 W7        30.07S
STATE COLLEGE  CLOUDY    37  34  87 W6        30.06S
WILLIAMSPORT   CLOUDY    42  35  76 W7        30.04S
SELINSGROVE    CLOUDY    42  37  82 CALM      30.06R
FT INDIANTOWN  CLOUDY    45  39  80 VRB7      30.04R
CAPITAL CITY   CLOUDY    47  35  63 NW7       30.06R
HARRISBURG     CLOUDY    45  37  73 NW7       30.05R
YORK           CLOUDY    44  38  79 NW6       30.06R
$$

PAZ038>040-043-044-047-048-054-055-060>062-067>071-190200-
EASTERN PENNSYLVANIA

CITY           SKY/WX    TMP DP  RH WIND       PRES   REMARKS
SCRANTON       CLOUDY    39  38  96 CALM      30.01F
MOUNT POCONO   CLOUDY    35  33  92 NW6       29.98S
ALLENTOWN      CLOUDY    42  38  85 CALM      30.03F
QUAKERTOWN*    CLOUDY    41  39  93 CALM      30.04F
READING        CLOUDY    45  37  73 NW7       30.03S
LANCASTER      CLOUDY    47  39  74 NW7       30.04S
COATESVILLE    CLOUDY    45  39  81 N6        30.04S
POTTSTOWN      CLOUDY    44  38  79 NE3       30.05S
BLUE BELL      CLOUDY    43  37  81 CALM      30.03S
DOYLESTOWN     CLOUDY    43  39  86 CALM      30.03S
WILLOW GROVE   NOT AVBL
NORTH PHILA    CLOUDY    45  39  79 N3        30.05S
PHILADELPHIA   CLOUDY    46  39  76 N9        30.04F
$$




USA.gov is the U.S. government's official web portal to all federal, state and local government web resources and services.